Regional Weather Roundup
Issued by NWS

Home | Current Version | Previous Version | Graphics & Text | Print | Product List | Glossary On
Versions: 1 2 3 4 5 6 7 8 9 10 11 12 13 14 15 16 17 18 19 20 21 22 23 24 25 26 27
000
ASUS45 KSLC 171010
RWRUT

UTAH REGIONAL WEATHER ROUNDUP
NATIONAL WEATHER SERVICE SALT LAKE CITY UT
400 AM MDT THU APR 17 2014

UTZ001>011-023>025-171100-

NORTHERN UTAH

CITY           SKY/WX    TMP DP  RH WIND       PRES   REMARKS
HILL AFB         N/A     39  14  35 E15       30.03S WCI  31
LOGAN          CLOUDY    35  23  61 CALM      30.04S
OGDEN            N/A     40  16  37 S9        30.02S WCI  34
PROVO AIRPORT    N/A     37  27  65 SE5       30.05S WCI  34
SALT LAKE CITY   N/A     40  20  44 SE6       30.02S
VERNAL         CLEAR     33  20  58 W7        30.04R WCI  27
WENDOVER         N/A     39  19  45 W5        30.01S
HEBER CITY       N/A     25  18  74 CALM      30.07S
WEST JORDAN    CLEAR     37  21  52 S5        30.04S WCI  34

$$

UTZ012>022-026-027-171100-

SOUTHERN UTAH

CITY           SKY/WX    TMP DP  RH WIND       PRES   REMARKS
BRYCE CANYON     N/A     24  18  77 W9        30.11R WCI  14
CEDAR CITY       N/A     38  22  52 SE7       30.03S WCI  33
MILFORD          N/A     35  19  52 CALM      30.03S
MOAB/CYNLANDS  CLEAR     43  20  39 NW3       29.98R
PRICE            N/A     36  14  40 NE8       30.03R WCI  30
ST GEORGE        N/A     57  25  28 CALM      29.94S
KANAB            N/A     45  23  42 NW13      30.05S

$$

REGIONAL REPORTS     COLORADO/ARIZONA

CITY           SKY/WX    TMP DP  RH WIND       PRES   REMARKS
CRAIG, CO      CLOUDY    24  17  74 E5        30.07R WCI  18
GRAND JUNCTION CLEAR     39  21  48 E8        30.00R WCI  33
RIFLE          CLEAR     32  22  66 SW3       30.04R
MONTROSE       CLEAR     34  25  69 SE8       30.06R WCI  27
CORTEZ         CLEAR     27  20  75 NE7       30.06R WCI  19
PAGE, AZ       NOT AVBL
GRAND CANYON     N/A     27  14  58 CALM      30.07S
KINGMAN          N/A     56  15  20 SE12      29.89S
FLAGSTAFF        N/A     28  15  58 CALM      30.09R

$$

REGIONAL REPORTS    NEVADA/IDAHO/WYOMING

CITY           SKY/WX    TMP DP  RH WIND       PRES   REMARKS
LAS VEGAS, NV    N/A     69  24  18 CALM      29.79R
ELY              N/A     29  22  75 S12       30.05F WCI  19
ELKO             N/A     36  26  67 E5        30.02S WCI  32
POCATELLO, ID  CLEAR     38  15  39 S7        30.01F WCI  33
BURLEY           N/A     36  21  54 SW9       30.00S WCI  29
EVANSTON, WY   CLEAR     30  10  43 S5        30.07R WCI  25
ROCK SPRINGS   PTCLDY    29  10  45 S5        30.05S WCI  24

$$



USA.gov is the U.S. government's official web portal to all federal, state and local government web resources and services.